DWGW3121 Weather Reports


time (UTC)temp
F
wind
direction
speed
knots
gust
knots
rain 1hr
in
rain 24hr
in
rain mn
in
humidity
%
barometer
mb
20260504070103 44 97 0.9 0.9 0.00 0.00 0.00 73 1010.9
20260504050602 42 98 1.7 2.6 0.00 0.00 0.00 72 1011.6
20260504045602 42 98 1.7 2.6 0.00 0.00 0.00 73 1011.7
20260504044603 42 98 0.9 2.6 0.00 0.00 0.00 71 1011.7
20260504043602 42 98 1.7 2.6 0.00 0.00 0.00 70 1011.6
20260504043102 42 98 2.6 4.3 0.00 0.00 0.00 70 1011.7
20260504042602 42 101 1.7 2.6 0.00 0.00 0.00 69 1011.6
20260504042102 42 101 2.6 4.3 0.00 0.00 0.00 69 1011.7
20260504041102 42 136 1.7 2.6 0.00 0.00 0.00 68 1011.7
20260504040603 42 169 1.7 2.6 0.00 0.00 0.00 68 1011.6
20260504035602 42 274 1.7 2.6 0.00 0.00 0.00 68 1011.5
20260504035102 42 274 1.7 2.6 0.00 0.00 0.00 69 1011.5
20260504034603 42 274 1.7 2.6 0.00 0.00 0.00 69 1011.4
20260504034102 42 274 0.9 1.7 0.00 0.00 0.00 69 1011.4
20260504033602 42 274 0.9 2.6 0.00 0.00 0.00 69 1011.4
20260504032602 42 274 0.9 1.7 0.00 0.00 0.00 67 1011.4
20260504032103 42 274 1.7 2.6 0.00 0.00 0.00 66 1011.3
20260504031603 42 274 1.7 2.6 0.00 0.00 0.00 66 1011.4
20260504031102 42 274 0.9 2.6 0.00 0.00 0.00 66 1011.3
20260504030602 42 274 1.7 2.6 0.00 0.00 0.00 65 1011.3
20260504030104 43 274 0.9 1.7 0.00 0.00 0.00 65 1011.3
20260504025603 43 274 1.7 1.7 0.00 0.00 0.00 64 1011.2
20260504025102 43 274 0.9 2.6 0.00 0.00 0.00 63 1011.1
20260504024602 44 274 1.7 2.6 0.00 0.00 0.00 62 1011.1
20260504024102 44 274 1.7 2.6 0.00 0.00 0.00 59 1011.1
20260504023602 44 274 0.9 1.7 0.00 0.00 0.00 56 1011.2
20260504023102 45 274 0.9 0.9 0.00 0.00 0.00 55 1011.2
20260504022603 45 274 0.0 0.9 0.00 0.00 0.00 55 1011.2
20260504022102 45 274 0.9 0.9 0.00 0.00 0.00 55 1011.3
20260504021103 46 274 0.0 0.9 0.00 0.00 0.00 53 1011.3
20260504015102 47 274 0.0 0.0 0.00 0.00 0.00 50 1011.4
20260504014102 47 274 0.0 0.0 0.00 0.00 0.00 49 1011.2
20260504013603 48 274 0.0 0.0 0.00 0.00 0.00 49 1011.2
20260504012602 48 274 0.0 0.0 0.00 0.00 0.00 47 1011.1
20260504012102 49 274 0.0 0.0 0.00 0.00 0.00 47 1011.0
20260504011602 49 274 0.0 0.0 0.00 0.00 0.00 47 1010.9
20260504011102 49 274 0.0 0.0 0.00 0.00 0.00 44 1010.9
20260504010602 50 274 0.0 0.0 0.00 0.00 0.00 44 1010.8
20260504005602 50 274 0.0 0.0 0.00 0.00 0.00 42 1010.7
20260504005102 50 274 0.0 0.0 0.00 0.00 0.00 42 1010.7
20260504004603 51 274 0.0 0.0 0.00 0.00 0.00 42 1010.7
20260504003602 51 274 0.0 1.7 0.00 0.00 0.00 42 1010.6
20260504003102 51 274 0.9 1.7 0.00 0.00 0.00 41 1010.5
20260504001602 52 274 1.7 2.6 0.00 0.00 0.00 41 1010.4
20260504000603 52 274 0.9 2.6 0.00 0.00 0.00 40 1010.3
20260503235103 52 278 1.7 5.2 0.00 0.00 0.00 38 1010.1
20260503234602 53 290 1.7 2.6 0.00 0.00 0.00 38 1010.0
20260503234102 53 290 1.7 4.3 0.00 0.00 0.00 37 1010.0
20260503232602 53 296 2.6 6.1 0.00 0.00 0.00 35 1009.9
20260503232103 54 300 2.6 7.0 0.00 0.00 0.00 35 1009.7
20260503231603 54 283 3.5 7.0 0.00 0.00 0.00 35 1009.6
20260503231104 54 291 2.6 6.1 0.00 0.00 0.00 35 1009.6
20260503230603 54 14 2.6 6.1 0.00 0.00 0.00 35 1009.5
20260503230103 54 300 2.6 7.0 0.00 0.00 0.00 35 1009.6
20260503224602 55 286 5.2 10.4 0.00 0.00 0.00 33 1009.5
20260503224102 55 282 2.6 7.8 0.00 0.00 0.00 33 1009.5
20260503223603 55 297 4.3 8.7 0.00 0.00 0.00 33 1009.4
20260503223102 55 318 1.7 4.3 0.00 0.00 0.00 32 1009.3
20260503222602 55 300 5.2 7.8 0.00 0.00 0.00 31 1009.3
20260503222102 56 284 3.5 7.8 0.00 0.00 0.00 30 1009.4
20260503221102 56 336 3.5 8.7 0.00 0.00 0.00 30 1009.3
20260503220602 56 267 6.1 10.4 0.00 0.00 0.00 30 1009.3
20260503215602 56 286 4.3 10.4 0.00 0.00 0.00 30 1009.4
20260503215102 56 273 5.2 12.2 0.00 0.00 0.00 32 1009.4
20260503214602 56 298 5.2 10.4 0.00 0.00 0.00 31 1009.3
20260503214103 56 336 3.5 10.4 0.00 0.00 0.00 30 1009.3
20260503213603 56 302 3.5 8.7 0.00 0.00 0.00 32 1009.3
20260503213102 56 332 5.2 10.4 0.00 0.00 0.00 32 1009.2
20260503212602 56 280 4.3 7.0 0.00 0.00 0.00 32 1009.2
20260503211603 56 336 4.3 10.4 0.00 0.00 0.00 32 1009.2
20260503211103 56 287 5.2 10.4 0.00 0.00 0.00 33 1009.1
20260503210603 56 288 4.3 10.4 0.00 0.00 0.00 33 1009.2
20260503205602 56 289 4.3 10.4 0.00 0.00 0.00 33 1009.1
20260503205102 56 281 3.5 7.0 0.00 0.00 0.00 35 1009.2
20260503204602 56 303 4.3 10.4 0.00 0.00 0.00 35 1009.3
20260503203603 56 278 2.6 7.8 0.00 0.00 0.00 37 1009.2
20260503203102 55 4 4.3 8.7 0.00 0.00 0.00 37 1009.4
20260503202603 55 332 2.6 7.8 0.00 0.00 0.00 37 1009.4
20260503202102 55 290 3.5 13.0 0.00 0.00 0.00 38 1009.5
20260503201602 55 342 4.3 10.4 0.00 0.00 0.00 37 1009.6
20260503201102 55 309 5.2 7.8 0.00 0.00 0.00 38 1009.7
20260503200603 55 290 5.2 10.4 0.00 0.00 0.00 38 1009.7
20260503195103 53 302 7.0 10.4 0.00 0.00 0.00 37 1009.9
20260503194602 53 333 6.1 10.4 0.00 0.00 0.00 39 1010.0
20260503194102 53 310 4.3 8.7 0.00 0.00 0.00 39 1010.0
20260503193603 53 310 5.2 8.7 0.00 0.00 0.00 39 1010.1
20260503193103 53 283 6.1 12.2 0.00 0.00 0.00 39 1010.2
20260503192102 53 338 4.3 8.7 0.00 0.00 0.00 41 1010.2
20260503191602 52 282 4.3 7.8 0.00 0.00 0.00 44 1010.2
20260503191103 52 280 3.5 10.4 0.00 0.00 0.00 47 1010.3
20260503190602 51 352 3.5 7.8 0.00 0.00 0.00 42 1010.3
20260503190103 51 13 1.7 7.0 0.00 0.00 0.00 44 1010.4
20260503185103 50 289 4.3 7.8 0.00 0.00 0.00 43 1010.6
20260503184602 50 329 4.3 13.0 0.00 0.00 0.00 43 1010.7
20260503184102 50 322 6.1 13.0 0.00 0.00 0.00 43 1010.7
20260503183102 50 299 4.3 8.7 0.00 0.00 0.00 44 1010.7
20260503182602 50 286 4.3 7.8 0.00 0.00 0.00 45 1010.7
20260503182102 50 273 4.3 7.8 0.00 0.00 0.00 45 1010.7
20260503181602 50 304 4.3 8.7 0.00 0.00 0.00 44 1010.7
20260503181106 50 4 2.6 7.8 0.00 0.00 0.00 42 1010.7
20260503180602 50 344 2.6 10.4 0.00 0.00 0.00 42 1010.7
20260503175602 50 284 7.0 11.3 0.00 0.00 0.00 43 1010.7
20260503175102 49 286 5.2 10.4 0.00 0.00 0.00 43 1010.8
20260503174603 49 264 7.0 15.6 0.00 0.00 0.00 42 1010.6
20260503174103 50 283 6.1 11.3 0.00 0.00 0.00 43 1010.7
20260503173603 49 287 6.1 10.4 0.00 0.00 0.00 44 1010.7
20260503173103 49 324 2.6 10.4 0.00 0.00 0.00 45 1010.7
20260503172604 49 293 6.1 10.4 0.00 0.00 0.00 44 1010.8
20260503172103 49 285 7.8 14.8 0.00 0.00 0.00 44 1010.8
20260503171603 49 286 6.1 13.0 0.00 0.00 0.00 44 1010.8
20260503171103 49 298 7.0 13.0 0.00 0.00 0.00 44 1010.7
20260503170603 49 287 7.0 13.0 0.00 0.00 0.00 44 1010.7
20260503170103 49 286 5.2 10.4 0.00 0.00 0.00 43 1010.8
20260503150603 47 303 4.3 12.2 0.00 0.00 0.00 52 1011.0
20260503130603 44 283 2.6 5.2 0.00 0.00 0.00 73 1011.7
20260503110603 37 355 0.9 1.7 0.00 0.03 0.00 85 1011.2
20260503090104 35 355 0.0 0.0 0.00 0.05 0.00 83 1010.9
20260503081603 35 355 0.0 0.9 0.00 0.06 0.00 80 1011.3
20260503081104 35 355 0.0 0.9 0.00 0.06 0.00 80 1011.3
20260503080603 36 355 0.0 0.9 0.00 0.06 0.00 80 1011.4
20260503080104 36 355 0.0 0.9 0.00 0.07 0.00 79 1011.4
20260503072603 37 355 0.9 1.7 0.00 0.10 0.00 77 1011.3
20260503072104 37 355 0.9 1.7 0.00 0.11 0.00 76 1011.4
20260503071603 37 355 0.9 1.7 0.00 0.12 0.00 75 1011.5